Miscellaneous Local Product
Issued by NWS Hastings, NE

Home | Current Version | Previous Version | Text Only | Print | Product List | Glossary Off
Versions: 1 2 3 4 5 6 7 8 9 10 11 12 13 14 15 16 17 18 19 20 21 22 23 24 25 26 27 28 29 30 31 32 33 34 35 36 37 38 39 40 41 42 43 44 45 46 47 48 49 50

805
AXUS43 KGID 200702
MISGRI

GID CWA HOURLY WEATHER ROUNDUP
NATIONAL WEATHER SERVICE HASTINGS NE
200 AM CDT FRI OCT 20 2017

NOTE: "FAIR" INDICATES FEW OR NO CLOUDS BELOW 12,000 FEET WITH NO
SIGNIFICANT WEATHER AND/OR OBSTRUCTIONS TO VISIBILITY.

...SOUTH CENTRAL NEBRASKA...

CITY           SKY/WX    TMP DP  RH WIND       PRES   REMARKS
GRAND ISLAND   FAIR      59  48  67 S14       29.93S
HASTINGS       FAIR      59  46  62 S9        29.94F
KEARNEY        FAIR      58  46  64 S15       29.92F
ORD            CLEAR     59  45  59 S9        29.87F
YORK           FAIR      59  48  67 S10       29.95S
AURORA         FAIR      58  46  63 S12       29.94S
LEXINGTON      PTCLDY    59  46  61 S10       29.89F
HOLDREGE       FAIR      57  47  71 S8        29.91F
HEBRON         FAIR      58  49  71 S8        29.97F

...NEBRASKA PANHANDLE...

CITY           SKY/WX    TMP DP  RH WIND       PRES   REMARKS
CHADRON        CLEAR     59  35  40 SW10      29.71S
ALLIANCE       CLEAR     44  39  82 S10       29.79F
SCOTTSBLUFF    CLEAR     55  32  41 E5        29.79F
SIDNEY         CLEAR     46  39  76 S6        29.83F

...WESTERN AND NORTH CENTRAL NEBRASKA...

CITY           SKY/WX    TMP DP  RH WIND       PRES   REMARKS
VALENTINE      CLEAR     61  44  53 SW8       29.78F
AINSWORTH      CLEAR     59  45  58 S13       29.81S
ONEILL         PTCLDY    60  47  60 S13       29.84F
BROKEN BOW     PTCLDY    59  45  59 S9        29.87F
IMPERIAL       CLEAR     58  43  57 S10       29.84F
NORTH PLATTE   PTCLDY    61  44  53 S8        29.85F
MCCOOK         PTCLDY    60  45  57 S16G23    29.87F

...EASTERN NEBRASKA...

CITY           SKY/WX    TMP DP  RH WIND       PRES   REMARKS
NORFOLK        FAIR      61  47  59 S18G26    29.89F
SO SIOUX CITY  FAIR      52  50  93 SE10      29.92S
TEKAMAH        FAIR      60  49  66 S9        29.95S
COLUMBUS       FAIR      62  47  57 S13G21    29.94S
ALBION         FAIR      59  48  66 S7        29.91S
OMAHA EPPLEY   FAIR      59  50  72 SE10      29.99R
OFFUTT AFB     FAIR      54  49  83 SE7       29.99R
MILLARD        FAIR      62  51  67 SE6       29.98S
LINCOLN        FAIR      61  49  64 S14       29.98S
NEBRASKA CITY  FAIR      60  52  75 S13G18    30.01S
BEATRICE       FAIR      60  50  69 S10G17    29.99S
FALLS CITY     FAIR      59  52  77 S7        30.03S

...NORTHERN KANSAS...

CITY           SKY/WX    TMP DP  RH WIND       PRES   REMARKS
GOODLAND       PTCLDY    56  46  69 S20G29    29.85F
HILL CITY      FAIR      61  47  59 S13G20    29.93F
NORTON         SUNNY     59  41  51 S13G22    29.89F
PHILLIPSBURG   CLEAR     63  46  55 S8        29.93F
SMITH CENTER   CLEAR     59  46  63 SE9       29.96F
HAYS           FAIR      60  48  64 S16       29.95F
RUSSELL        FAIR      59  51  75 S17       29.96F
CONCORDIA      FAIR      60  52  74 S20G26    29.98S
SALINA         FAIR      64  55  72 S18       30.00F
TOPEKA         FAIR      62  55  77 S7        30.05F



USA.gov is the U.S. government's official web portal to all federal, state and local government web resources and services.